User: anonymous   Login
Location: Cheching
(60.0667°N, 164.2167°W)
Time: 12:05:20
(UTC+00:00)
Language:

AIST 2D - Orbit

View from above orbital plane
View from above orbital plane
View from above satellite
View from above satellite

Ground track
Ground track

The orbit data is extracted from the following two-line orbital elements,

1 41465U 16026B   21016.15162591  .00002023  00000-0  60710-4 0  9990
2 41465  97.1271 265.3377 0010262 194.6260 318.4294 15.35538753264054
Epoch (UTC): 16 January 2021 03:38:20
Eccentricity: 0.0010262
inclination: 97.1271°
perigee height: 452 km
apogee height: 466 km
right ascension of ascending node: 265.3377°
argument of perigee: 194.6260°
revolutions per day: 15.35538753
mean anomaly at epoch: 318.4294°
orbit number at epoch: 26405

The dashed part of the orbit path shows where the satellite is in the earth's shadow,  

DLR